User: anonymous   Login
Location: Unspecified
(0.0000°N, 0.0000°E)
Time: 06:29:50
(UTC+01:00)
Language:

CZ-4 DEB - Orbit

View from above orbital plane
View from above orbital plane
View from above satellite
View from above satellite

Ground track
Ground track

The orbit data is extracted from the following two-line orbital elements,

1 29508U 06046D   15030.55089838  .00030144  00000-0  13611-2 0  7999
2 29508 097.6976 045.5800 0003816 216.2067 259.2970 15.20921134451758
Epoch (UTC): 30 January 2015 13:13:17
Eccentricity: 0.0003816
inclination: 97.6976°
perigee height: 500 km
apogee height: 505 km
right ascension of ascending node: 45.5800°
argument of perigee: 216.2067°
revolutions per day: 15.20921134
mean anomaly at epoch: 259.2970°
orbit number at epoch: 45175

The dashed part of the orbit path shows where the satellite is in the earth's shadow,  

DLR